Regional Weather Roundup
Issued by NWS

Home | Current Version | Previous Version | Graphics & Text | Print | Product List | Glossary On
Versions: 1 2 3 4 5 6 7 8 9 10 11 12 13 14 15 16 17 18 19 20 21 22 23 24 25 26 27 28 29 30 31 32 33 34 35 36 37 38 39 40 41 42 43 44 45 46 47 48 49 50
000
ASUS44 KMEG 212310
RWRTN
TENNESSEE HOURLY STATE WEATHER ROUNDUP
NATIONAL WEATHER SERVICE MEMPHIS TN
500 PM CST SUN DEC 21 2014

TNZ002-004-019-021-049-052-054-088>092-220000-
WEST TENNESSEE

CITY           SKY/WX    TMP DP  RH WIND       PRES   REMARKS
MEMPHIS INTL   PTCLDY    54  31  41 SE5       30.02S
NWS MEMPHIS      N/A     51 N/A N/A MISG        N/A
JACKSON        PTCLDY    49  30  48 CALM      30.04F
DYERSBURG      CLEAR     48  27  43 E3        30.05F
UNION CITY     CLEAR     43  32  65 CALM      30.04F
PARIS          CLEAR     39  28  65 CALM      30.05F
HUNTINGDON     PTCLDY    42  30  62 CALM      30.05F
LEXINGTON      CLEAR     48  32  53 CALM      30.03F
SAVANNAH       CLEAR     48  39  71 SE3       30.05F
$$

TNZ008-025-027-028-033-062-065-066-220000-
NORTH MIDDLE TENNESSEE

CITY           SKY/WX    TMP DP  RH WIND       PRES   REMARKS
NASHVILLE      MOCLDY    51  37  58 S3        30.08S
CLARKSVILLE    PTCLDY    44  31  60 NE6       30.07F
SMYRNA         CLOUDY    50  38  63 CALM      30.09R
COOKEVILLE     CLOUDY    48  37  66 S6        30.08R
CROSSVILLE     CLOUDY    48  36  63 CALM      30.08F
$$

TNZ061-075-076-078-094-096-097-220000-
SOUTH MIDDLE TENNESSEE

CITY           SKY/WX    TMP DP  RH WIND       PRES   REMARKS
FAYETTEVILLE   CLOUDY    48  39  71 MISG      30.06F
TULLAHOMA      CLOUDY    48  37  66 CALM      30.08S
WINCHESTER     CLOUDY    48  39  71 SE5       30.08S
MCMINNVILLE    CLOUDY    50  39  66 CALM      30.07F
COLUMBIA       CLOUDY    50  43  76 CALM      30.04F
SHELBYVILLE    CLOUDY    52  39  62 SE3       30.08S
$$

TNZ017-018-042-046-047-220000-
NORTHEAST TENNESSEE

CITY           SKY/WX    TMP DP  RH WIND       PRES   REMARKS
TRI CITIES     MOCLDY    42  34  73 N3        30.10F
ELIZABETHTON   CLEAR     39  34  81 CALM      30.11R
$$

TNZ012-013-036-069-073-074-220000-
CENTRAL EAST TENNESSEE

CITY           SKY/WX    TMP DP  RH WIND       PRES   REMARKS
KNOXVILLE      CLOUDY    46  36  68 N3        30.11R
OAK RIDGE      CLOUDY    47  35  63 CALM      30.12S
GATLINBURG     CLEAR     46  36  66 CALM      30.11R
MORRISTOWN     CLEAR     45  36  70 CALM      30.12R
$$

TNZ083-085-099-220000-
SOUTHEAST TENNESSEE

CITY           SKY/WX    TMP DP  RH WIND       PRES   REMARKS
CHATTANOOGA    CLOUDY    47  38  71 N3        30.11S
$$

SKY/WX REPORTED AS FAIR MEANS FEW OR NO CLOUDS BELOW
12 THOUSAND FEET.




USA.gov is the U.S. government's official web portal to all federal, state and local government web resources and services.